Tracking 18843 objects as of 21-November-2017
HD Live streaming from Space Station
objects crossing your sky now

OPS 5117 (NAVSTAR 5)

Track OPS 5117 (NAVSTAR 5) now!
OPS 5117 (NAVSTAR 5) is classified as:


NORAD ID: 11690
Int'l Code: 1980-011A
Perigee: 18,994.3 km
Apogee: 21,381.6 km
Inclination: 63.2 °
Period: 717.9 minutes
Semi major axis: 26558 km
RCS: 0.4791 m2 (medium)
Launch date: February 9, 1980
Source: United States (US)
Launch site: AIR FORCE WESTERN TEST RANGE (AFWTR)
PRN:
aabbcc
Your satellite tracking list
Your tracking list is empty




NASA's NSSDC Master Catalog

Two Line Element Set (TLE):
1 11690U 80011A   17324.10597476 +.00000062 +00000-0 +00000-0 0  9991
2 11690 063.2438 145.7366 0449443 194.6953 094.8995 02.00579706290924
Source of the keplerian elements: AFSPC